星链-36545(STARLINK-36545)

导读

STARLINK-36545是美国于2026年1月18日发射的星链卫星,归属SpaceX星链星座项目。星链计划旨在构建全球卫星互联网星座,为全球提供高速低延迟互联网服务,尤其覆盖偏远地区。该卫星加入已部署的庞大星链网络,进一步扩展全球卫星互联网覆盖范围,持续推进星座组网建设。

基本信息
目录编号:
67505
目录名称:
STARLINK-36545
国际标识:
2026-012N
轨道中心:
EARTH
卫星名称:
星链-36545
卫星全名:
星链-36545(STARLINK-36545)
卫星状态:
在轨 (已飞行237 天)
发射日期:
2026-01-18 UTC
国别 :
美国 (US)
星等 :
--
该卫星已列入 空间交会检测服务 Space Conjunction Data Service (SCDS) ,当前飞行风险评估等级: 无高风险
轨道信息
数据来源 国际轨道数据
星历时间: 2026-09-12T14:58:59+0800
6小时前
查看轨道信息
半长轴: 6861.147km
偏心率: 0.0002346
轨道倾角: 43.002°
近地点辐角 285.733°
升交点赤经 340.266°
平近点角 74.326°
近地点: 481.4km
远地点: 484.62km
周期: 94.266分钟
每日圈数: 15.275931
详细信息
固有亮度:
5
最大亮度:
2.5
卫星平台:
Starlink V1.0
覆盖范围:
全球
运营商:
太空探索技术公司
运营商所在国:
美国
制造商(研发单位):
太空探索技术公司
制造商所在国:
美国
使用方式:
暂无
卫星简介
Starlink 计划是 SpaceX 推出的全球卫星互联网项目,通过发射低轨道卫星,为全球尤其是偏远地区提供高速、低延迟的互联网服务。自 2019 年起,Starlink 已部署数千颗卫星,旨在缩小全球数字鸿沟,推动互联网普及。该项目还为军事、航空等行业提供通信支持,带来广泛经济效益。
2D轨道图
3D轨道图
轨道高度分析图
轨道倾角分析图
轨道综合分析图
查看轨道综合分析图
交会数据列表
事件ID 空间交会对象 最接近时刻(TCA) 交会距离 交会风险概率(CRP) 交会风险指数(CRI) 操作
CDM_260914-081605-688506-750521
2026-09-14T
08:16:19+0000
0.880 km
远距离
3.053889E-5 中风险 0.65
CDM_260914-110605-824206-750521
2026-09-14T
11:06:38+0000
1.054 km
极远距离
6.900864E-6 低风险 0.52
CDM_260914-095005-688506-750521
2026-09-14T
09:50:28+0000
2.783 km
极远距离
1.142656E-6 低风险 0.36
CDM_260914-084505-824206-750521
2026-09-14T
08:45:25+0000
1.992 km
极远距离
1.023517E-6 低风险 0.35
CDM_260914-101905-824206-750521
2026-09-14T
10:19:34+0000
2.058 km
极远距离
9.51932E-7 极低风险 0.35
CDM_260914-124005-824206-750521
2026-09-14T
12:40:48+0000
2.918 km
极远距离
5.431625E-7 极低风险 0.3
与全量物体交会距离演化趋势
与全量物体交会风险概率演化趋势